Location: Kawakawa
(35.3830°S, 174.0670°E)
Time: 17:09:08
(UTC+12:00)

Cosmos 2366 rocket - Pass Details

Date: 15 August 2020
Orbit: 955 x 997 km, 82.9° (Epoch: 25 September)

Event Time Altitude Azimuth Distance (km) Brightness Sun altitude
Rises 18:38:22 0° 187° (S) 3,750 7.0 -10.0°
Reaches altitude 10° 18:40:56 10° 187° (S) 2,793 6.4 -10.5°
Maximum altitude 18:47:22 87° 274° (W) 1,007 4.1 -11.8°
Drops below altitude 10° 18:53:42 10° 3° (N) 2,742 6.4 -13.1°
Sets 18:56:11 0° 3° (N) 3,677 7.1 -13.6°
